Weather in Novoye Chaplino

Russia / Chukotka Autonomous Okrug     64°29′55″N   172°51′32″W
temp.,
°C
wind,
m/s
gust,
m/s
humid.,
%
clouds,
%
prec.,
mm/h
press.,
hPa
HPBL,
m
11 april, sun
sun1100:00−20nne61197100 0.3 1020408
03:00−21nne71195100 0.0 1019380
06:00−21nne71595100 0.0 1017472
09:00−20nne91492100 0.0 1016468
12:00−19nne81787100 0.1 1015594
15:00−19nne91794100 0.6 1014643
18:00−18nne91796100 2.2 1013692
21:00−18nne101995100 1.5 1011702
12 april, mon
mon1200:00−17nne102095100 3.1 1007718
03:00−16nne92094100 2.8 1004812
06:00−15nne102194100 5.4 1003906
09:00−14nne122393100 2.7 1000974
12:00−15nne102194100 4.5 999881
15:00−15nne92093100 1.2 998834
18:00−14nne91991100 1.6 998736
21:00−14nne91892100 0.5 997674
13 april, tue
tue1300:00−14nne81694100 1.4 997610
03:00−13nne71295100 1.4 998513
06:00−12nne71295100 2.7 998528
09:00−11nne61194100 1.6 999595
12:00−11nne61093100 3.1 1000493
15:00−10nne61193100 1.2 1000517
18:00−10nne51194100 2.2 1001520
21:00−11nne5895100 1.4 1003438
14 april, wed
wed1400:00−11nne5895100 2.6 1004299
03:00−13n459692 0.6 100592
06:00−12n469697 1.1 1007172
09:00−10nne459297 0.4 1009295
12:00−7nne3592100 0.9 1010509
15:00−6ne2393100 0.9 1012368
18:00−7n2296100 1.6 101442
21:00−9n339692 0.3 101636
15 april, thu
thu1500:00−13n229872 0.4 101811
03:00−16nw229953 0.0 10199
06:00−15wnw119618 0.0 10209
09:00−9se11885 0.0 102176
12:00−7sw118539 0.0 1021236
15:00−7ne118826 0.0 102236
18:00−13nw119871 0.0 10239
21:00−16w219953 0.0 10259